User: anonymous   Login
Location: Unspecified
(0.0000°N, 0.0000°E)
Time: 12:27:47
(UTC+00:00)
Language:

Kosmos-1816 - Orbit

View from above orbital plane
View from above orbital plane
View from above satellite
View from above satellite

Ground track
Ground track

The orbit data is extracted from the following two-line orbital elements,

1 17359U 87009A   18020.87867344 +.00000042 +00000-0 +27471-4 0  9998
2 17359 082.9261 142.0981 0033591 119.7983 030.4640 13.74425058553514
Epoch (UTC): 20 January 2018 21:05:17
Eccentricity: 0.0033591
inclination: 82.9261°
perigee height: 959 km
apogee height: 1008 km
right ascension of ascending node: 142.0981°
argument of perigee: 119.7983°
revolutions per day: 13.74425058
mean anomaly at epoch: 30.4640°
orbit number at epoch: 55351

The dashed part of the orbit path shows where the satellite is in the earth's shadow,  

DLR